Change the Weather History Date:

Thursday, January 16, 2014

  Actual Average Record
Temperature  
Mean Temperature 29 °F 35 °F  
Max Temperature 37 °F 43 °F 71 °F (1990)
Min Temperature 20 °F 27 °F -10 °F (1977)
Degree Days  
Heating Degree Days 36 30  
Month to date heating degree days 525 480  
Since 1 July heating degree days 2166 2056  
Cooling Degree Days 0 0  
Month to date cooling degree days 0 0  
Year to date cooling degree days 0 0  
Moisture  
Dew Point 21 °F    
Average Humidity 65    
Maximum Humidity 82    
Minimum Humidity 47    
Precipitation  
Precipitation 0.01 in 0.11 in 1.35 in (1885)
Month to date precipitation 2.07 1.69  
Year to date precipitation 2.07 1.69  
Snow  
Snow T in 0.10 in 8.30 in (1978)
Month to date snowfall 0.5 1.7  
Since 1 July snowfall 6.3 4.5  
Snow Depth 0.00 in    
Sea Level Pressure  
Sea Level Pressure 29.92 in    
Wind  
Wind Speed 10 mph (SSW)    
Max Wind Speed 17 mph    
Max Gust Speed 23 mph    
Visibility 9 miles    
Events Rain , Snow    
T = Trace of Precipitation, MM = Missing Value Source: NWS Daily Summary

Daily Weather History Graph

Daily Weather History Graph

Search for Another Location

Airport or City:

Trip Planner

Search our weather history database for the weather conditions in past years. The results will help you decide how hot, cold, wet, or windy it might be!

Date:

Astronomy

Jan. 16, 2014 Rise Set
Actual Time 7:57 AM EST 5:48 PM EST
Civil Twilight 7:28 AM EST 6:16 PM EST
Nautical Twilight 6:56 AM EST 6:49 PM EST
Astronomical Twilight 6:24 AM EST 7:20 PM EST
Moon 6:37 PM EST (1/16) 7:52 AM EST (1/16)
Length of Visible Light 10h 47m
Length of Day
9h 50m
Full, 100% of the Moon is Illuminated
Jan 16
Full
Jan 24
Last Quarter
Jan 30
New
Feb 6
First Quarter
Feb 14
Full

Hourly Weather History & Observations

Time (EST) Temp. Windchill Dew Point Humidity Pressure Visibility Wind Dir Wind Speed Gust Speed Precip Events Conditions
12:56 AM 21.9 °F 14.5 °F 14.0 °F 72% 30.10 in 10.0 mi SW 5.8 mph - N/A   Clear
1:56 AM 21.2 °F 13.6 °F 14.0 °F 74% 30.08 in 10.0 mi South 5.8 mph - N/A   Partly Cloudy
2:56 AM 21.0 °F 14.6 °F 14.0 °F 74% 30.07 in 10.0 mi South 4.6 mph - N/A   Partly Cloudy
3:56 AM 21.9 °F 14.5 °F 14.0 °F 72% 30.06 in 10.0 mi South 5.8 mph - N/A   Scattered Clouds
4:56 AM 21.0 °F 11.4 °F 14.0 °F 74% 30.04 in 10.0 mi South 8.1 mph - N/A   Scattered Clouds
5:56 AM 21.0 °F 10.6 °F 15.1 °F 78% 30.03 in 10.0 mi South 9.2 mph - N/A   Partly Cloudy
6:56 AM 21.9 °F 9.8 °F 15.1 °F 75% 29.99 in 10.0 mi South 12.7 mph - N/A   Mostly Cloudy
7:56 AM 23.0 °F 12.4 °F 16.0 °F 74% 29.98 in 10.0 mi South 10.4 mph - N/A   Mostly Cloudy
8:56 AM 25.0 °F 16.3 °F 16.0 °F 69% 29.97 in 10.0 mi South 8.1 mph - N/A   Overcast
9:56 AM 28.0 °F 17.0 °F 16.0 °F 61% 29.97 in 10.0 mi South 13.8 mph - N/A   Overcast
10:56 AM 28.9 °F 18.2 °F 16.0 °F 58% 29.96 in 8.0 mi South 13.8 mph - N/A   Overcast
10:57 AM 28.4 °F 17.0 °F 17.6 °F 64% 29.95 in 2.5 mi South 15.0 mph - 0.00 in Snow Light Snow
11:19 AM 28.4 °F 18.0 °F 19.4 °F 69% 29.93 in 2.0 mi South 12.7 mph 23.0 mph 0.00 in Snow Light Snow
11:24 AM 28.4 °F 17.0 °F 21.2 °F 74% 29.93 in 1.5 mi South 15.0 mph - 0.00 in Snow Light Snow
11:44 AM 28.4 °F 18.5 °F 21.2 °F 74% 29.91 in 3.0 mi South 11.5 mph - 0.00 in Snow Light Snow
11:56 AM 28.9 °F 17.7 °F 19.9 °F 69% 29.91 in 9.0 mi South 15.0 mph - 0.00 in Snow Light Snow
12:03 PM 28.4 °F 18.5 °F 21.2 °F 74% 29.89 in 9.0 mi South 11.5 mph - 0.00 in Snow Light Snow
12:56 PM 30.0 °F 19.5 °F 21.0 °F 69% 29.83 in 9.0 mi South 13.8 mph - 0.00 in Snow Light Snow
1:56 PM 32.0 °F 23.6 °F 19.0 °F 59% 29.82 in 10.0 mi South 10.4 mph - 0.00 in   Overcast
2:56 PM 36.0 °F 28.0 °F 18.0 °F 48% 29.78 in 10.0 mi South 11.5 mph - N/A   Overcast
3:56 PM 37.0 °F 29.3 °F 19.0 °F 48% 29.78 in 10.0 mi SSW 11.5 mph - N/A   Overcast
4:56 PM 37.0 °F 30.4 °F 19.0 °F 48% 29.80 in 10.0 mi SW 9.2 mph - N/A   Overcast
5:56 PM 36.0 °F 27.1 °F 24.1 °F 62% 29.81 in 10.0 mi SSW 13.8 mph - N/A   Overcast
6:56 PM 36.0 °F 28.5 °F 28.0 °F 73% 29.83 in 9.0 mi South 10.4 mph - 0.00 in   Overcast
7:56 PM 36.0 °F 28.0 °F 30.0 °F 79% 29.83 in 10.0 mi SSW 11.5 mph - N/A   Overcast
8:56 PM 36.0 °F 28.5 °F 30.0 °F 79% 29.84 in 10.0 mi SW 10.4 mph - N/A   Scattered Clouds
9:56 PM 37.0 °F 29.3 °F 30.9 °F 79% 29.86 in 10.0 mi West 11.5 mph 18.4 mph N/A   Overcast
10:37 PM 35.6 °F 30.7 °F 32.0 °F 87% 29.86 in 8.0 mi WSW 5.8 mph - 0.00 in Rain , Snow Light Rain
10:56 PM 35.1 °F 31.0 °F 32.0 °F 89% 29.86 in 9.0 mi SW 4.6 mph - 0.01 in Rain Light Rain
11:05 PM 35.6 °F 30.7 °F 32.0 °F 87% 29.85 in 10.0 mi SSW 5.8 mph - 0.00 in   Overcast
11:56 PM 35.1 °F 31.0 °F 32.0 °F 89% 29.85 in 10.0 mi SSW 4.6 mph - 0.00 in   Overcast